Starlink 33741

operational
NORAD ID: 63365 Int'l Des: 2025-063 Owner: SPXS Country: US Constellation: starlink
LEOCIRCULAR

Über Starlink 33741

Beschreibung wird geladen...

Live-Position

3D-Globus wird geladen...

Nächste Überflüge

Höhenverlauf

Altitude vs Time

uPlot chart will show altitude changes over time

Zweizeiliger Elementsatz

1 63365U 25063C 25258.11533736 .00031299 00000-0 78921-3 0 9994
2 63365 53.1572 149.0276 0001080 74.2974 285.8150 15.39620669 27868
Epoch: 15. Sept. 2025 • Age: 25 hours

Aktueller Status

Höhe 454.4 km
Geschwindigkeit 7.64 km/s
Subsatellitenpunkt -24.73°S, 75.36°E
Startdatum 26. März 2025
Alter 0.4 years
Typ internet

Technische Details

Klassifizierung Payload
Masse 575.00 kg
Trockenmasse 530.00 kg
Gesamtmasse 575.00 kg
Länge 0.30 m
Durchmesser 4.10 m
Spannweite 29.00 m
Form Box + pan
Hersteller SPXS
Bus-Typ Starlink V2MO
Phasenstatus In Orbit
Besitzer/Staat SPXS/US

Große Konstellationen

Loading constellations...